[[{"header":{"parameterUnit":"m.s-1","parameterCategory":1,"la1":30.2991,"la2":30.254,"lo1":-89.0895,"lo2":-89.0444,"dy":0.0017,"dx":0.0017,"nx":28,"ny":28,"refTime":"2024-02-23T03:00:00:Z","depth":0,"parameterNumber":2,"parameterNumberName":"U-component_of_WINDS"},"data":[0,0,0,0,0,0,0,0,0,0,0,0,0,0,0,0,0,0,0,0,0,0,0,0,0,0,0,0,0,0,0,0,0,0,0,0,0,0,0,0,0,0,0,0,0,0,0,0,0,0,0,0,0,0,0,0,0,0,1.9822,1.9823,0,1.988,1.9881,1.9881,1.9874,1.9873,1.9872,1.9871,1.9933,1.9935,1.9938,0,0,0,0,0,0,0,0,0,0,0,0,0,1.9708,1.971,1.9822,1.9823,1.9823,1.988,1.9881,1.9881,1.9874,1.9873,1.9871,1.987,1.9932,1.9935,1.9938,0,0,0,0,0,0,0,0,0,0,0,0,0,1.9761,1.9711,1.9822,1.9826,1.9827,1.988,1.9881,1.9882,1.9874,1.9873,1.9871,1.987,1.9931,1.9935,1.9938,1.9991,0,0,1.995,1.9952,0,0,0,0,0,0,0,0,1.9758,1.9765,1.9825,1.9826,1.9827,1.9868,1.9863,1.9918,1.9874,1.9856,1.9871,1.9869,1.9912,1.9918,1.9932,1.9994,1.9996,1.995,1.9953,1.9954,1.9955,0,0,0,0,0,0,0,1.9754,1.9763,1.9845,1.9826,1.9827,1.9827,1.9833,1.9874,1.9892,1.9858,1.9857,1.9864,1.9913,1.9928,1.9933,1.9997,1.995,1.9954,1.9956,1.9957,2.0107,2.0109,0,0,0,0,0,0,1.9749,1.976,1.9843,1.9847,1.9788,1.983,1.9836,1.9856,1.9891,1.9895,1.9865,1.9864,1.9922,1.9929,1.9935,2.0001,1.9954,1.9958,1.996,2.0106,2.0108,2.0109,0,0,0,0,0,0,1.9747,1.9757,1.9841,1.9803,1.9814,1.9833,1.9856,1.9858,1.9874,1.9897,1.9901,1.9877,1.9921,1.993,1.9977,2.0003,1.9959,1.9963,2.0104,2.0106,2.0109,2.013,0,0,0,0,0,0,1.9744,1.9756,1.9775,1.9804,1.9816,1.9881,1.9857,1.9861,1.988,1.9878,1.9909,1.9913,1.9921,1.9972,1.9981,2.0007,1.9966,2.0101,2.0105,2.0108,2.0127,2.0133,2.0138,0,0,0,0,0,1.9739,1.9779,1.9776,1.9786,1.984,1.9882,1.9889,1.9897,1.9882,1.9902,1.9918,1.9912,1.9998,1.9977,1.9987,2.0015,2.01,2.0104,2.0107,2.0125,2.0132,2.0138,0,0,0,0,0,0,1.9753,1.9783,1.978,1.9829,1.9853,1.9881,1.9906,1.9904,1.9933,1.993,1.9939,1.9946,1.9995,2.0009,1.9985,2.0068,2.0047,2.0053,2.0057,2.0064,2.0069,2.0065,1.9969,0,0,0,0,0,1.9762,1.9793,1.9817,1.9859,1.9871,1.9886,1.9905,1.9909,1.9934,1.9945,1.9963,1.9989,2.0022,2.0044,2.0075,2.0129,2.0137,2.0154,2.0159,2.0163,2.0169,2.0201,2.0209,2.0122,2.0122,2.0122,0,0,1.978,1.98,1.9819,1.9862,1.9881,1.9914,1.9895,1.993,1.9955,1.995,1.9996,2.0011,2.0041,2.0092,2.0116,2.0106,2.0195,2.0168,2.0172,2.0175,2.0206,2.0214,2.0221,2.0125,2.0124,2.0124,0,0,1.9831,1.9848,1.9886,1.9905,1.9934,1.9945,1.9954,1.9982,1.9992,2.0038,2.0035,2.0066,2.0122,2.0143,2.0162,2.0223,2.022,2.0233,2.0261,2.0292,2.0299,2.0305,2.0329,2.0337,2.0238,2.0238,2.0238,0,1.9851,1.9899,1.9905,1.9942,1.9961,1.9958,1.9997,2.0016,2.0054,2.0068,2.0056,2.0128,2.0147,2.0205,2.022,2.0234,2.0246,2.0229,2.0297,2.0304,2.031,2.0332,2.034,2.0239,2.0239,2.0239,2.0239,0,1.9923,1.9957,1.9983,2.002,2.0043,2.008,2.0093,2.0116,2.0118,2.013,2.0179,2.0202,2.0239,2.0253,2.0255,2.0312,2.0305,2.0295,2.0274,2.0319,2.0341,2.0349,2.0242,2.0241,2.0241,2.024,0,0,1.9983,2.0023,2.0033,2.0051,2.0083,2.011,2.0148,2.0184,2.0204,2.0231,2.0264,2.0312,2.0304,2.0325,2.033,2.0357,2.0406,2.0344,2.0345,2.0356,2.0471,2.0479,2.0489,2.0404,2.0405,2.0407,2.0469,0,2.0038,2.0104,2.0112,2.0171,2.0204,2.0202,2.0235,2.026,2.0272,2.0303,2.0318,2.0352,2.0338,2.0351,2.0377,2.0394,2.0429,2.039,2.0436,2.0438,2.043,2.05,2.0508,2.0566,2.0478,2.0479,2.048,0,2.0111,2.0139,2.0202,2.0232,2.0246,2.0275,2.031,2.0338,2.0367,2.0374,2.0398,2.04,2.0442,2.0419,2.0476,2.0449,2.0469,2.048,2.0483,2.0488,2.0462,2.0508,2.0584,2.0593,2.0493,2.0492,2.0491,0,2.015,2.0205,2.025,2.0265,2.03,2.0321,2.0337,2.0363,2.0385,2.0415,2.043,2.0465,2.0484,2.0512,2.0525,2.0506,2.0582,2.056,2.0591,2.0591,2.0608,2.0607,2.0689,2.0619,2.0619,2.0618,2.0618,0,2.0212,2.025,2.0268,2.0296,2.034,2.0349,2.0393,2.0408,2.0433,2.0465,2.0465,2.0495,2.0509,2.0542,2.0552,2.0599,2.0608,2.0616,2.0619,2.0617,2.0616,2.0631,2.0627,2.0621,2.062,2.062,2.0619,0,2.0264,2.0277,2.0326,2.0355,2.0364,2.0395,2.0421,2.0449,2.0462,2.0502,2.0512,2.0533,2.0572,2.0587,2.0634,2.0641,2.0696,2.0695,2.0687,2.0688,2.0719,2.0716,2.0814,2.0828,2.0747,2.0748,2.0749,0,2.0302,2.0332,2.0365,2.0386,2.0402,2.0436,2.0458,2.0469,2.0492,2.0528,2.0552,2.059,2.0622,2.0685,2.0705,2.0742,2.0742,2.0774,2.0747,2.0745,2.0744,2.0743,2.0747,2.0779,2.078,2.078,2.0781,0,2.037,2.0375,2.0407,2.0441,2.0467,2.0495,2.0522,2.054,2.0555,2.0581,2.0621,2.0645,2.0694,2.0733,2.0771,2.0789,2.0789,2.0789,2.0799,2.0798,2.0792,2.0797,2.0701,2.0787,2.0786,2.0786,2.0786,2.0785,2.0417,2.0445,2.0472,2.0508,2.0529,2.0555,2.0583,2.0599,2.0632,2.0672,2.0677,2.072,2.0749,2.0801,2.082,2.0855,2.0847,2.086,2.0864,2.0867,2.087,2.0786,2.0862,2.0862,2.0862,2.0861,2.0861,0,2.0486,2.0504,2.0537,2.0575,2.0603,2.0599,2.0629,2.0654,2.0691,2.0718,2.0749,2.0796,2.0834,2.0858,2.0897,2.092,2.0921,2.093,2.0929,2.0934,2.0875,2.0863,2.0929,2.0929,2.0929,2.0929,2.0929,2.0929,2.0526,2.0572,2.0581,2.0639,2.0657,2.0698,2.0716,2.074,2.0762,2.0814,2.0845,2.086,2.0887,2.0928,2.0963,2.0969,2.0985,2.0995,2.1,2.0945,2.0938,2.0931,2.092,2.0997,2.0998,2.1057,2.1057,2.1058]},{"header":{"parameterUnit":"m.s-1","parameterCategory":1,"la1":30.2991,"la2":30.254,"lo1":-89.0895,"lo2":-89.0444,"dy":0.0017,"dx":0.0017,"nx":28,"ny":28,"refTime":"2024-02-23T03:00:00:Z","depth":0,"parameterNumber":3,"parameterNumberName":"V-component_of_WINDS"},"data":[0,0,0,0,0,0,0,0,0,0,0,0,0,0,0,0,0,0,0,0,0,0,0,0,0,0,0,0,0,0,0,0,0,0,0,0,0,0,0,0,0,0,0,0,0,0,0,0,0,0,0,0,0,0,0,0,0,0,-2.7754,-2.7755,0,-2.7861,-2.7863,-2.7864,-2.7876,-2.7875,-2.7874,-2.7873,-2.7985,-2.7989,-2.7993,0,0,0,0,0,0,0,0,0,0,0,0,0,-2.7562,-2.7566,-2.7754,-2.7755,-2.7757,-2.7861,-2.7863,-2.7864,-2.7876,-2.7875,-2.7874,-2.7872,-2.7984,-2.7989,-2.7994,0,0,0,0,0,0,0,0,0,0,0,0,0,-2.7655,-2.7567,-2.7754,-2.7775,-2.7778,-2.7861,-2.7863,-2.7864,-2.7876,-2.7875,-2.7873,-2.7872,-2.7983,-2.7988,-2.7994,-2.8064,0,0,-2.8013,-2.8015,0,0,0,0,0,0,0,0,-2.765,-2.7662,-2.7771,-2.7774,-2.7777,-2.7854,-2.7836,-2.7931,-2.7877,-2.7839,-2.7873,-2.7871,-2.7943,-2.7952,-2.7976,-2.8069,-2.8074,-2.8013,-2.8017,-2.8019,-2.8021,0,0,0,0,0,0,0,-2.7643,-2.7658,-2.7796,-2.7772,-2.7776,-2.778,-2.7792,-2.7854,-2.7899,-2.7842,-2.7844,-2.7856,-2.7945,-2.797,-2.7979,-2.8076,-2.8013,-2.8018,-2.8022,-2.8024,-2.8232,-2.8234,0,0,0,0,0,0,-2.7633,-2.7652,-2.7793,-2.78,-2.7708,-2.7785,-2.7798,-2.7831,-2.7898,-2.7907,-2.7857,-2.7856,-2.7961,-2.7972,-2.7983,-2.8069,-2.8019,-2.8025,-2.8028,-2.823,-2.8233,-2.8235,0,0,0,0,0,0,-2.7628,-2.7645,-2.7789,-2.7726,-2.7745,-2.779,-2.7827,-2.7834,-2.7859,-2.7909,-2.7918,-2.7875,-2.796,-2.7974,-2.8044,-2.8073,-2.8028,-2.8033,-2.8228,-2.8231,-2.8234,-2.8242,0,0,0,0,0,0,-2.7623,-2.7643,-2.767,-2.7727,-2.7748,-2.7847,-2.7829,-2.7837,-2.7869,-2.7869,-2.7928,-2.7937,-2.796,-2.8035,-2.805,-2.8081,-2.8038,-2.8226,-2.8229,-2.8233,-2.824,-2.8245,-2.825,0,0,0,0,0,-2.7616,-2.7668,-2.7671,-2.7688,-2.7782,-2.7849,-2.7861,-2.7886,-2.7872,-2.7899,-2.7931,-2.7935,-2.8067,-2.8042,-2.8059,-2.8092,-2.8224,-2.8228,-2.8233,-2.8237,-2.8244,-2.825,0,0,0,0,0,0,-2.7614,-2.7676,-2.768,-2.7752,-2.7795,-2.785,-2.7885,-2.7892,-2.794,-2.7938,-2.7967,-2.7981,-2.8049,-2.8078,-2.8047,-2.8163,-2.8144,-2.8152,-2.8142,-2.8149,-2.8154,-2.8146,-2.8043,0,0,0,0,0,-2.7622,-2.767,-2.7722,-2.7781,-2.7802,-2.784,-2.787,-2.7885,-2.7931,-2.795,-2.7987,-2.8033,-2.8085,-2.8118,-2.8169,-2.8244,-2.8258,-2.8275,-2.828,-2.8284,-2.8291,-2.8334,-2.8343,-2.8249,-2.8249,-2.8249,0,0,-2.7639,-2.7679,-2.7707,-2.7781,-2.7816,-2.7867,-2.7855,-2.7909,-2.7947,-2.7958,-2.8026,-2.8055,-2.8108,-2.818,-2.8214,-2.8206,-2.832,-2.829,-2.8293,-2.8297,-2.8339,-2.8348,-2.8356,-2.8252,-2.8251,-2.8251,0,0,-2.7695,-2.773,-2.7783,-2.7818,-2.7871,-2.7896,-2.7909,-2.7964,-2.7984,-2.8052,-2.8062,-2.8108,-2.8197,-2.8234,-2.8265,-2.8336,-2.8342,-2.8352,-2.8379,-2.842,-2.8428,-2.8434,-2.8461,-2.847,-2.8358,-2.8358,-2.8358,0,-2.771,-2.7785,-2.7809,-2.7863,-2.7896,-2.7907,-2.7962,-2.7996,-2.8063,-2.8086,-2.8075,-2.8187,-2.8224,-2.8306,-2.8323,-2.8347,-2.8364,-2.8345,-2.8425,-2.8432,-2.8438,-2.8464,-2.8474,-2.8359,-2.8359,-2.8359,-2.8359,0,-2.7801,-2.7853,-2.789,-2.7954,-2.7991,-2.8044,-2.8078,-2.8112,-2.8124,-2.8151,-2.8221,-2.8265,-2.8325,-2.8345,-2.8358,-2.843,-2.8423,-2.8418,-2.84,-2.8448,-2.8472,-2.8482,-2.8361,-2.836,-2.836,-2.836,0,0,-2.786,-2.7936,-2.7949,-2.7979,-2.8038,-2.808,-2.8135,-2.8193,-2.8222,-2.8268,-2.8316,-2.8391,-2.8387,-2.8422,-2.8439,-2.8475,-2.853,-2.8466,-2.8468,-2.8477,-2.8613,-2.8617,-2.8628,-2.8534,-2.8536,-2.8537,-2.8609,0,-2.7924,-2.8021,-2.8044,-2.8127,-2.8177,-2.8189,-2.8237,-2.8279,-2.8306,-2.8352,-2.8382,-2.8435,-2.8425,-2.8446,-2.8483,-2.8516,-2.8558,-2.8511,-2.858,-2.8582,-2.8567,-2.8641,-2.8645,-2.871,-2.8619,-2.862,-2.8622,0,-2.8011,-2.8059,-2.8147,-2.8201,-2.8222,-2.8265,-2.832,-2.8364,-2.8413,-2.843,-2.8469,-2.8482,-2.8541,-2.8519,-2.8601,-2.8569,-2.8599,-2.8619,-2.8622,-2.863,-2.8605,-2.8652,-2.8732,-2.8742,-2.8637,-2.8636,-2.8635,0,-2.8046,-2.8132,-2.8196,-2.8221,-2.8285,-2.8315,-2.8343,-2.839,-2.8424,-2.8473,-2.8496,-2.8551,-2.8581,-2.8625,-2.8653,-2.8634,-2.8734,-2.8714,-2.875,-2.875,-2.8771,-2.877,-2.8858,-2.8789,-2.8789,-2.8788,-2.8788,0,-2.8116,-2.817,-2.8213,-2.8252,-2.8313,-2.834,-2.84,-2.8429,-2.8471,-2.8517,-2.8531,-2.8575,-2.8609,-2.8658,-2.8681,-2.8746,-2.8759,-2.8776,-2.8781,-2.8775,-2.8773,-2.8795,-2.8792,-2.8791,-2.879,-2.879,-2.8789,0,-2.8166,-2.8196,-2.8267,-2.8322,-2.8337,-2.838,-2.8427,-2.8467,-2.8494,-2.8552,-2.8567,-2.861,-2.8668,-2.87,-2.8773,-2.8789,-2.8862,-2.8865,-2.8845,-2.8848,-2.8883,-2.8879,-2.8989,-2.9006,-2.8924,-2.8925,-2.8926,0,-2.8208,-2.825,-2.8309,-2.834,-2.8369,-2.842,-2.8454,-2.8483,-2.8518,-2.8577,-2.861,-2.8668,-2.8717,-2.8809,-2.8847,-2.8903,-2.8908,-2.8943,-2.8917,-2.8909,-2.891,-2.8908,-2.8913,-2.8947,-2.8948,-2.8949,-2.8949,0,-2.8281,-2.8295,-2.8343,-2.8397,-2.8437,-2.8482,-2.8526,-2.8551,-2.8587,-2.8626,-2.8685,-2.8723,-2.8797,-2.8856,-2.8915,-2.8945,-2.8954,-2.8957,-2.8969,-2.8963,-2.8951,-2.8959,-2.8858,-2.8955,-2.8954,-2.8954,-2.8953,-2.8953,-2.833,-2.8367,-2.8415,-2.8469,-2.8505,-2.8546,-2.8586,-2.8617,-2.8666,-2.8729,-2.8743,-2.8805,-2.8854,-2.8935,-2.8967,-2.9017,-2.9011,-2.9027,-2.9032,-2.9036,-2.9037,-2.8942,-2.9028,-2.9028,-2.9027,-2.9027,-2.9027,0,-2.8404,-2.8435,-2.8484,-2.8545,-2.8588,-2.8591,-2.864,-2.8676,-2.873,-2.8775,-2.8822,-2.889,-2.8947,-2.899,-2.9048,-2.908,-2.9086,-2.9095,-2.9094,-2.9101,-2.9039,-2.9024,-2.909,-2.909,-2.909,-2.909,-2.909,-2.9089,-2.8448,-2.8512,-2.8531,-2.8614,-2.8646,-2.8706,-2.8734,-2.8772,-2.8808,-2.8883,-2.893,-2.8957,-2.9002,-2.9064,-2.9117,-2.9128,-2.9149,-2.9158,-2.917,-2.9112,-2.9105,-2.9099,-2.9084,-2.9162,-2.9162,-2.9228,-2.9228,-2.9229]}]]